TimeCDT,TemperatureF,Dew PointF,Humidity,Sea Level PressureIn,VisibilityMPH,Wind Direction,Wind SpeedMPH,Gust SpeedMPH,PrecipitationIn,Events,Conditions,WindDirDegrees,DateUTC
12:54 AM,66.0,63.0,90,30.09,7.0,Calm,Calm,-,N/A,,Clear,0,2013-07-04 05:54:00
1:54 AM,66.0,64.0,93,30.09,7.0,Calm,Calm,-,N/A,,Clear,0,2013-07-04 06:54:00
2:54 AM,64.9,62.1,90,30.08,6.0,Calm,Calm,-,N/A,,Clear,0,2013-07-04 07:54:00
3:41 AM,64.4,62.6,94,30.08,1.5,Calm,Calm,-,N/A,,Clear,0,2013-07-04 08:41:00
3:52 AM,64.4,62.6,94,30.08,3.0,Calm,Calm,-,N/A,,Clear,0,2013-07-04 08:52:00
3:54 AM,64.0,62.1,93,30.08,5.0,Calm,Calm,-,N/A,,Clear,0,2013-07-04 08:54:00
4:54 AM,64.0,63.0,96,30.08,5.0,Calm,Calm,-,N/A,,Clear,0,2013-07-04 09:54:00
5:54 AM,64.0,62.1,93,30.09,3.0,NE,3.5,-,N/A,,Clear,40,2013-07-04 10:54:00
6:28 AM,64.4,62.6,94,30.10,2.5,Calm,Calm,-,N/A,,Clear,0,2013-07-04 11:28:00
6:51 AM,66.2,64.4,94,30.11,3.0,Calm,Calm,-,N/A,,Clear,0,2013-07-04 11:51:00
6:54 AM,66.9,64.9,93,30.10,3.0,NE,3.5,-,N/A,,Clear,50,2013-07-04 11:54:00
7:54 AM,69.1,66.0,90,30.10,3.0,Calm,Calm,-,N/A,,Clear,0,2013-07-04 12:54:00
8:54 AM,71.1,66.9,87,30.12,4.0,Calm,Calm,-,N/A,,Clear,0,2013-07-04 13:54:00
9:54 AM,72.0,68.0,87,30.11,6.0,ESE,3.5,-,N/A,,Clear,120,2013-07-04 14:54:00
10:25 AM,73.4,68.0,83,30.12,7.0,ENE,3.5,-,N/A,,Partly Cloudy,70,2013-07-04 15:25:00
10:54 AM,73.9,68.0,82,30.11,7.0,East,4.6,-,N/A,,Scattered Clouds,80,2013-07-04 15:54:00
11:13 AM,73.4,69.8,88,30.12,8.0,ESE,4.6,-,N/A,,Mostly Cloudy,110,2013-07-04 16:13:00
11:40 AM,73.4,66.2,78,30.12,8.0,East,4.6,-,N/A,,Mostly Cloudy,80,2013-07-04 16:40:00
11:54 AM,75.0,68.0,79,30.11,8.0,East,4.6,-,N/A,,Mostly Cloudy,100,2013-07-04 16:54:00
12:01 PM,75.2,68.0,78,30.12,8.0,Variable,3.5,-,N/A,,Partly Cloudy,0,2013-07-04 17:01:00
12:54 PM,75.9,68.0,76,30.11,8.0,East,6.9,-,N/A,,Partly Cloudy,80,2013-07-04 17:54:00
1:17 PM,75.2,68.0,78,30.11,8.0,ESE,5.8,-,N/A,,Mostly Cloudy,110,2013-07-04 18:17:00
1:30 PM,75.2,68.0,78,30.11,8.0,SE,5.8,-,N/A,,Scattered Clouds,130,2013-07-04 18:30:00
1:54 PM,75.9,68.0,76,30.10,9.0,ESE,5.8,-,N/A,,Scattered Clouds,120,2013-07-04 18:54:00
2:06 PM,77.0,69.8,78,30.10,9.0,SE,6.9,-,N/A,,Mostly Cloudy,130,2013-07-04 19:06:00
2:54 PM,79.0,68.0,69,30.07,10.0,SE,6.9,-,N/A,,Mostly Cloudy,140,2013-07-04 19:54:00
3:54 PM,77.0,66.0,69,30.07,10.0,SE,10.4,-,N/A,,Mostly Cloudy,130,2013-07-04 20:54:00
4:54 PM,75.9,66.0,71,30.06,10.0,SE,9.2,-,N/A,,Scattered Clouds,130,2013-07-04 21:54:00
5:54 PM,73.9,66.0,76,30.05,10.0,SE,6.9,-,N/A,,Clear,130,2013-07-04 22:54:00
6:54 PM,73.0,66.9,81,30.06,10.0,SE,5.8,-,N/A,,Partly Cloudy,130,2013-07-04 23:54:00
7:54 PM,73.0,64.9,76,30.06,10.0,SE,5.8,-,N/A,,Clear,130,2013-07-05 00:54:00
8:54 PM,71.1,66.0,84,30.06,10.0,SE,4.6,-,N/A,,Partly Cloudy,130,2013-07-05 01:54:00
9:54 PM,70.0,66.0,87,30.09,10.0,Calm,Calm,-,N/A,,Partly Cloudy,0,2013-07-05 02:54:00
10:54 PM,69.1,66.0,90,30.09,8.0,Calm,Calm,-,N/A,,Partly Cloudy,0,2013-07-05 03:54:00
11:54 PM,69.1,64.0,84,30.08,10.0,SE,3.5,-,N/A,,Clear,130,2013-07-05 04:54:00